Time,TemperatureF,DewpointF,PressureIn,WindDirection,WindDirectionDegrees,WindSpeedMPH,WindSpeedGustMPH,Humidity,HourlyPrecipIn,Conditions,Clouds,dailyrainin,SoftwareType,DateUTC
2013-05-10 00:02:00,66.7,54.6,29.77,East,90,2.2,5.8,65,0.00,CLR,,0.00,WeatherDisplay:10.37,2013-05-10 05:02:00,
2013-05-10 00:07:00,66.7,54.6,29.77,SE,135,2.6,4.6,65,0.00,CLR,,0.00,WeatherDisplay:10.37,2013-05-10 05:07:00,
2013-05-10 00:12:00,66.7,54.6,29.77,SSE,158,2.4,3.3,65,0.00,CLR,,0.00,WeatherDisplay:10.37,2013-05-10 05:12:00,
2013-05-10 00:17:00,66.7,55.0,29.77,SSE,158,2.9,3.5,66,0.00,CLR,,0.00,WeatherDisplay:10.37,2013-05-10 05:17:00,
2013-05-10 00:22:00,66.9,54.8,29.77,ESE,112,2.4,3.5,65,0.00,CLR,,0.00,WeatherDisplay:10.37,2013-05-10 05:22:00,
2013-05-10 00:27:00,66.9,55.2,29.77,SSE,158,2.9,4.6,66,0.00,CLR,,0.00,WeatherDisplay:10.37,2013-05-10 05:27:00,
2013-05-10 00:32:00,66.9,55.2,29.77,SE,135,2.0,5.6,66,0.00,CLR,,0.00,WeatherDisplay:10.37,2013-05-10 05:32:00,
2013-05-10 00:37:00,67.1,55.8,29.77,SSE,158,2.9,6.4,67,0.00,CLR,,0.00,WeatherDisplay:10.37,2013-05-10 05:37:00,
2013-05-10 00:42:00,67.1,55.4,29.77,ESE,112,2.6,3.6,66,0.00,CLR,,0.00,WeatherDisplay:10.37,2013-05-10 05:42:00,
2013-05-10 00:47:00,67.1,55.8,29.77,SSE,158,2.2,2.9,67,0.00,CLR,,0.00,WeatherDisplay:10.37,2013-05-10 05:47:00,
2013-05-10 00:52:00,67.1,55.4,29.77,SSE,158,2.2,3.5,66,0.00,CLR,,0.00,WeatherDisplay:10.37,2013-05-10 05:52:00,
2013-05-10 00:57:00,67.1,55.4,29.77,East,90,2.2,2.4,66,0.00,CLR,,0.00,WeatherDisplay:10.37,2013-05-10 05:57:00,
2013-05-10 01:02:00,67.1,55.4,29.77,SSE,158,2.2,3.5,66,0.00,CLR,,0.00,WeatherDisplay:10.37,2013-05-10 06:02:00,
2013-05-10 01:07:00,67.3,55.5,29.74,ESE,112,1.6,2.4,66,0.00,CLR,,0.00,WeatherDisplay:10.37,2013-05-10 06:07:00,
2013-05-10 01:12:00,67.3,55.9,29.74,South,180,0.0,2.3,67,0.00,CLR,,0.00,WeatherDisplay:10.37,2013-05-10 06:12:00,
2013-05-10 01:17:00,67.3,55.9,29.74,SSW,202,2.0,2.3,67,0.00,CLR,,0.00,WeatherDisplay:10.37,2013-05-10 06:17:00,
2013-05-10 01:22:00,67.3,55.5,29.74,ESE,112,2.2,2.9,66,0.00,CLR,,0.00,WeatherDisplay:10.37,2013-05-10 06:22:00,
2013-05-10 01:27:00,67.3,55.5,29.74,ESE,112,1.2,2.3,66,0.00,CLR,,0.00,WeatherDisplay:10.37,2013-05-10 06:27:00,
2013-05-10 01:33:00,67.3,55.9,29.74,South,180,1.6,2.3,67,0.00,CLR,,0.00,WeatherDisplay:10.37,2013-05-10 06:33:00,
2013-05-10 01:38:00,67.3,55.9,29.74,SE,135,2.0,2.3,67,0.00,CLR,,0.00,WeatherDisplay:10.37,2013-05-10 06:38:00,
2013-05-10 01:43:00,67.3,55.9,29.74,ESE,112,1.6,2.3,67,0.00,CLR,,0.00,WeatherDisplay:10.37,2013-05-10 06:43:00,
2013-05-10 01:48:00,67.1,55.8,29.74,SSE,158,0.0,0.0,67,0.00,CLR,,0.00,WeatherDisplay:10.37,2013-05-10 06:48:00,
2013-05-10 01:53:00,67.1,55.8,29.74,ESE,112,1.2,2.3,67,0.00,CLR,,0.00,WeatherDisplay:10.37,2013-05-10 06:53:00,
2013-05-10 01:58:00,67.1,56.2,29.74,ESE,112,2.4,3.5,68,0.00,CLR,,0.00,WeatherDisplay:10.37,2013-05-10 06:58:00,
2013-05-10 02:03:00,67.1,56.6,29.74,SSE,158,2.0,2.4,69,0.00,CLR,,0.00,WeatherDisplay:10.37,2013-05-10 07:03:00,
2013-05-10 02:08:00,66.9,56.4,29.71,SSE,158,2.0,2.3,69,0.00,CLR,,0.00,WeatherDisplay:10.37,2013-05-10 07:08:00,
2013-05-10 02:13:00,66.9,57.2,29.71,SSE,158,2.6,3.1,71,0.00,CLR,,0.00,WeatherDisplay:10.37,2013-05-10 07:13:00,
2013-05-10 02:18:00,66.9,57.6,29.71,ESE,112,2.4,3.5,72,0.00,CLR,,0.00,WeatherDisplay:10.37,2013-05-10 07:18:00,
2013-05-10 02:23:00,66.9,57.2,29.71,ESE,112,2.0,2.9,71,0.00,CLR,,0.00,WeatherDisplay:10.37,2013-05-10 07:23:00,
2013-05-10 02:28:00,66.9,57.2,29.71,SSE,158,0.0,2.3,71,0.00,CLR,,0.00,WeatherDisplay:10.37,2013-05-10 07:28:00,
2013-05-10 02:33:00,66.7,57.0,29.71,ESE,112,1.4,2.0,71,0.00,CLR,,0.00,WeatherDisplay:10.37,2013-05-10 07:33:00,
2013-05-10 02:38:00,66.9,57.6,29.71,ESE,112,2.0,2.9,72,0.00,CLR,,0.00,WeatherDisplay:10.37,2013-05-10 07:38:00,
2013-05-10 02:43:00,66.9,57.6,29.71,East,90,2.0,2.6,72,0.00,CLR,,0.00,WeatherDisplay:10.37,2013-05-10 07:43:00,
2013-05-10 02:48:00,66.7,57.8,29.71,SSE,158,1.6,2.4,73,0.00,CLR,,0.00,WeatherDisplay:10.37,2013-05-10 07:48:00,
2013-05-10 02:53:00,66.7,57.8,29.71,SE,135,2.0,2.3,73,0.00,CLR,,0.00,WeatherDisplay:10.37,2013-05-10 07:53:00,
2013-05-10 02:58:00,66.7,57.8,29.71,SSE,158,1.4,2.3,73,0.00,CLR,,0.00,WeatherDisplay:10.37,2013-05-10 07:58:00,
2013-05-10 03:03:00,66.7,57.8,29.71,SSE,158,1.6,2.4,73,0.00,CLR,,0.00,WeatherDisplay:10.37,2013-05-10 08:03:00,
2013-05-10 03:08:00,66.9,58.7,29.68,SE,135,2.4,2.6,75,0.00,CLR,,0.00,WeatherDisplay:10.37,2013-05-10 08:08:00,
2013-05-10 03:13:00,66.9,59.1,29.68,South,180,1.4,2.3,76,0.00,CLR,,0.00,WeatherDisplay:10.37,2013-05-10 08:13:00,
2013-05-10 03:18:00,66.9,59.1,29.68,SE,135,0.9,2.3,76,0.00,CLR,,0.00,WeatherDisplay:10.37,2013-05-10 08:18:00,
2013-05-10 03:24:00,67.1,59.6,29.71,South,180,2.0,2.6,77,0.00,CLR,,0.00,WeatherDisplay:10.37,2013-05-10 08:24:00,
2013-05-10 03:29:00,67.1,60.0,29.71,SE,135,2.4,3.5,78,0.00,CLR,,0.00,WeatherDisplay:10.37,2013-05-10 08:29:00,
2013-05-10 03:34:00,67.1,60.0,29.68,South,180,2.4,3.5,78,0.00,CLR,,0.00,WeatherDisplay:10.37,2013-05-10 08:34:00,
2013-05-10 03:39:00,67.1,60.0,29.68,SSE,158,2.2,2.3,78,0.00,CLR,,0.00,WeatherDisplay:10.37,2013-05-10 08:39:00,
2013-05-10 03:44:00,67.1,59.6,29.68,SE,135,2.9,5.8,77,0.00,CLR,,0.00,WeatherDisplay:10.37,2013-05-10 08:44:00,
2013-05-10 03:49:00,67.1,60.4,29.68,SE,135,2.4,4.6,79,0.00,CLR,,0.00,WeatherDisplay:10.37,2013-05-10 08:49:00,
2013-05-10 03:54:00,67.1,60.7,29.68,SSE,158,3.6,4.6,80,0.00,CLR,,0.00,WeatherDisplay:10.37,2013-05-10 08:54:00,
2013-05-10 03:59:00,67.3,60.5,29.68,SSE,158,2.4,2.9,79,0.00,CLR,,0.00,WeatherDisplay:10.37,2013-05-10 08:59:00,
2013-05-10 04:04:00,67.1,60.4,29.71,SSE,158,2.4,4.6,79,0.00,CLR,,0.00,WeatherDisplay:10.37,2013-05-10 09:04:00,
2013-05-10 04:09:00,67.3,60.5,29.71,SSW,202,2.2,3.6,79,0.00,CLR,,0.00,WeatherDisplay:10.37,2013-05-10 09:09:00,
2013-05-10 04:14:00,67.3,60.5,29.71,East,90,1.2,2.3,79,0.00,CLR,,0.00,WeatherDisplay:10.37,2013-05-10 09:14:00,
2013-05-10 04:19:00,67.3,60.2,29.71,East,90,2.4,3.1,78,0.00,CLR,,0.00,WeatherDisplay:10.37,2013-05-10 09:19:00,
2013-05-10 04:24:00,67.3,60.5,29.71,SSE,158,0.0,3.5,79,0.00,CLR,,0.00,WeatherDisplay:10.37,2013-05-10 09:24:00,
2013-05-10 04:29:00,67.3,60.5,29.71,WSW,248,2.2,2.6,79,0.00,CLR,,0.00,WeatherDisplay:10.37,2013-05-10 09:29:00,
2013-05-10 04:34:00,67.3,60.5,29.71,SSW,202,0.0,2.3,79,0.00,CLR,,0.00,WeatherDisplay:10.37,2013-05-10 09:34:00,
2013-05-10 04:39:00,67.3,60.2,29.71,ESE,112,0.0,1.2,78,0.00,CLR,,0.00,WeatherDisplay:10.37,2013-05-10 09:39:00,
2013-05-10 04:44:00,67.3,60.2,29.71,ESE,112,0.0,2.3,78,0.00,CLR,,0.00,WeatherDisplay:10.37,2013-05-10 09:44:00,
2013-05-10 04:49:00,67.3,60.2,29.71,South,180,1.2,2.3,78,0.00,CLR,,0.00,WeatherDisplay:10.37,2013-05-10 09:49:00,
2013-05-10 04:54:00,67.3,60.2,29.71,ESE,112,2.0,2.6,78,0.00,CLR,,0.00,WeatherDisplay:10.37,2013-05-10 09:54:00,
2013-05-10 04:59:00,67.3,60.5,29.71,ESE,112,1.6,3.5,79,0.00,CLR,,0.00,WeatherDisplay:10.37,2013-05-10 09:59:00,
2013-05-10 05:04:00,67.3,60.5,29.71,SSE,158,0.9,2.3,79,0.00,CLR,,0.00,WeatherDisplay:10.37,2013-05-10 10:04:00,
2013-05-10 05:09:00,67.3,60.5,29.71,SSE,158,0.9,2.0,79,0.00,CLR,,0.00,WeatherDisplay:10.37,2013-05-10 10:09:00,
2013-05-10 05:14:00,67.3,60.5,29.71,SSE,158,1.4,2.3,79,0.00,CLR,,0.00,WeatherDisplay:10.37,2013-05-10 10:14:00,
2013-05-10 05:19:00,67.5,60.7,29.71,ESE,112,2.0,2.6,79,0.00,CLR,,0.00,WeatherDisplay:10.37,2013-05-10 10:19:00,
2013-05-10 05:24:00,67.5,61.1,29.71,ESE,112,2.6,2.9,80,0.00,CLR,,0.00,WeatherDisplay:10.37,2013-05-10 10:24:00,
2013-05-10 05:29:00,67.5,61.1,29.71,SE,135,2.4,2.6,80,0.00,CLR,,0.00,WeatherDisplay:10.37,2013-05-10 10:29:00,
2013-05-10 05:34:00,67.6,61.6,29.71,ESE,112,2.2,3.5,81,0.00,CLR,,0.00,WeatherDisplay:10.37,2013-05-10 10:34:00,
2013-05-10 05:39:00,67.6,61.6,29.71,SSE,158,2.2,3.1,81,0.00,CLR,,0.00,WeatherDisplay:10.37,2013-05-10 10:39:00,
2013-05-10 05:44:00,67.8,62.1,29.71,South,180,1.6,3.5,82,0.00,CLR,,0.00,WeatherDisplay:10.37,2013-05-10 10:44:00,
2013-05-10 05:49:00,67.8,62.1,29.71,SSW,202,2.4,3.1,82,0.00,CLR,,0.00,WeatherDisplay:10.37,2013-05-10 10:49:00,
2013-05-10 05:55:00,68.0,62.3,29.71,South,180,2.6,4.6,82,0.00,CLR,,0.00,WeatherDisplay:10.37,2013-05-10 10:55:00,
2013-05-10 06:00:00,68.0,61.9,29.71,South,180,2.4,4.0,81,0.00,CLR,,0.00,WeatherDisplay:10.37,2013-05-10 11:00:00,
2013-05-10 06:05:00,68.0,61.9,29.71,SSE,158,1.6,3.5,81,0.00,CLR,,0.00,WeatherDisplay:10.37,2013-05-10 11:05:00,
2013-05-10 06:10:00,68.0,61.9,29.71,SSE,158,2.0,2.4,81,0.00,CLR,,0.00,WeatherDisplay:10.37,2013-05-10 11:10:00,
2013-05-10 06:15:00,68.0,61.9,29.71,SSE,158,2.0,2.9,81,0.00,CLR,,0.00,WeatherDisplay:10.37,2013-05-10 11:15:00,
2013-05-10 06:20:00,68.0,61.6,29.71,SE,135,2.4,2.6,80,0.00,CLR,,0.00,WeatherDisplay:10.37,2013-05-10 11:20:00,
2013-05-10 06:25:00,68.0,61.9,29.71,South,180,1.2,2.4,81,0.00,CLR,,0.00,WeatherDisplay:10.37,2013-05-10 11:25:00,
2013-05-10 06:30:00,68.2,62.1,29.71,SSE,158,2.4,2.9,81,0.00,CLR,,0.00,WeatherDisplay:10.37,2013-05-10 11:30:00,
2013-05-10 06:35:00,68.2,62.1,29.74,SSE,158,2.2,2.4,81,0.00,CLR,,0.00,WeatherDisplay:10.37,2013-05-10 11:35:00,
2013-05-10 06:40:00,68.2,62.1,29.74,SE,135,1.6,2.3,81,0.00,CLR,,0.00,WeatherDisplay:10.37,2013-05-10 11:40:00,
2013-05-10 06:45:00,68.2,61.8,29.74,ESE,112,0.0,1.4,80,0.00,CLR,,0.00,WeatherDisplay:10.37,2013-05-10 11:45:00,
2013-05-10 06:50:00,68.2,61.8,29.71,South,180,1.6,2.6,80,0.00,CLR,,0.00,WeatherDisplay:10.37,2013-05-10 11:50:00,
2013-05-10 06:55:00,68.4,61.9,29.71,ENE,68,2.0,2.4,80,0.00,CLR,,0.00,WeatherDisplay:10.37,2013-05-10 11:55:00,
2013-05-10 07:00:00,68.2,61.4,29.71,ESE,112,2.0,2.4,79,0.00,CLR,,0.00,WeatherDisplay:10.37,2013-05-10 12:00:00,
2013-05-10 07:05:00,68.2,61.8,29.71,East,90,3.1,3.8,80,0.00,CLR,,0.00,WeatherDisplay:10.37,2013-05-10 12:05:00,
2013-05-10 07:10:00,68.4,62.3,29.71,East,90,3.1,4.6,81,0.00,CLR,,0.00,WeatherDisplay:10.37,2013-05-10 12:10:00,
2013-05-10 07:15:00,68.4,62.3,29.71,ESE,112,2.6,3.5,81,0.00,CLR,,0.00,WeatherDisplay:10.37,2013-05-10 12:15:00,
2013-05-10 07:20:00,68.5,62.5,29.71,SSE,158,2.4,4.0,81,0.00,CLR,,0.00,WeatherDisplay:10.37,2013-05-10 12:20:00,
2013-05-10 07:25:00,68.5,62.5,29.71,ESE,112,3.3,3.8,81,0.00,CLR,,0.00,WeatherDisplay:10.37,2013-05-10 12:25:00,
2013-05-10 07:30:00,68.5,62.5,29.71,ESE,112,2.4,4.6,81,0.00,CLR,,0.00,WeatherDisplay:10.37,2013-05-10 12:30:00,
2013-05-10 07:35:00,68.5,62.5,29.71,SE,135,3.3,4.6,81,0.00,CLR,,0.00,WeatherDisplay:10.37,2013-05-10 12:35:00,
2013-05-10 07:40:00,68.4,62.3,29.71,South,180,1.4,2.6,81,0.00,CLR,,0.00,WeatherDisplay:10.37,2013-05-10 12:40:00,
2013-05-10 07:45:00,68.4,61.9,29.71,South,180,1.4,2.3,80,0.00,CLR,,0.00,WeatherDisplay:10.37,2013-05-10 12:45:00,
2013-05-10 07:50:00,68.4,61.9,29.74,SSW,202,0.0,2.3,80,0.00,CLR,,0.00,WeatherDisplay:10.37,2013-05-10 12:50:00,
2013-05-10 07:55:00,68.4,61.9,29.74,SE,135,1.6,2.3,80,0.00,CLR,,0.00,WeatherDisplay:10.37,2013-05-10 12:55:00,
2013-05-10 08:00:00,68.5,62.1,29.74,SE,135,1.6,3.5,80,0.00,CLR,,0.00,WeatherDisplay:10.37,2013-05-10 13:00:00,
2013-05-10 08:05:00,68.5,62.1,29.77,East,90,2.4,2.9,80,0.00,CLR,,0.00,WeatherDisplay:10.37,2013-05-10 13:05:00,
2013-05-10 08:10:00,68.5,62.1,29.77,South,180,1.6,2.6,80,0.00,CLR,,0.00,WeatherDisplay:10.37,2013-05-10 13:10:00,
2013-05-10 08:15:00,68.5,62.1,29.77,SSW,202,2.0,3.5,80,0.00,CLR,,0.00,WeatherDisplay:10.37,2013-05-10 13:15:00,
2013-05-10 08:20:00,68.5,62.1,29.77,SW,225,1.2,2.3,80,0.00,CLR,,0.00,WeatherDisplay:10.37,2013-05-10 13:20:00,
2013-05-10 08:25:00,68.5,62.5,29.77,West,270,0.9,2.3,81,0.00,CLR,,0.00,WeatherDisplay:10.37,2013-05-10 13:25:00,
2013-05-10 08:30:00,68.5,62.5,29.77,SSW,202,0.9,2.3,81,0.00,CLR,,0.00,WeatherDisplay:10.37,2013-05-10 13:30:00,
2013-05-10 08:35:00,68.5,62.8,29.77,ENE,68,1.6,2.3,82,0.00,CLR,,0.00,WeatherDisplay:10.37,2013-05-10 13:35:00,
2013-05-10 08:40:00,68.5,62.8,29.77,West,270,1.2,2.2,82,0.00,CLR,,0.00,WeatherDisplay:10.37,2013-05-10 13:40:00,
2013-05-10 08:45:00,68.5,62.8,29.77,West,270,1.4,2.3,82,0.00,CLR,,0.00,WeatherDisplay:10.37,2013-05-10 13:45:00,
2013-05-10 08:50:00,68.5,63.2,29.80,WNW,292,2.4,2.9,83,0.00,CLR,,0.00,WeatherDisplay:10.37,2013-05-10 13:50:00,
2013-05-10 08:55:00,68.5,63.2,29.80,North,0,2.6,3.5,83,0.00,CLR,,0.00,WeatherDisplay:10.37,2013-05-10 13:55:00,
2013-05-10 09:00:00,68.4,63.0,29.80,North,0,2.0,2.3,83,0.00,CLR,,0.00,WeatherDisplay:10.37,2013-05-10 14:00:00,
2013-05-10 09:05:00,68.5,63.5,29.83,NW,315,2.0,3.1,84,0.00,CLR,,0.00,WeatherDisplay:10.37,2013-05-10 14:05:00,
2013-05-10 09:10:00,68.4,63.7,29.83,NNW,338,2.0,4.6,85,0.00,CLR,,0.00,WeatherDisplay:10.37,2013-05-10 14:10:00,
2013-05-10 09:15:00,68.4,63.7,29.83,NNW,338,2.9,6.4,85,0.00,CLR,,0.00,WeatherDisplay:10.37,2013-05-10 14:15:00,
2013-05-10 09:21:00,68.4,63.7,29.80,NNW,338,2.6,3.5,85,0.00,CLR,,0.00,WeatherDisplay:10.37,2013-05-10 14:21:00,
2013-05-10 09:26:00,68.4,64.0,29.80,North,0,3.6,5.8,86,0.00,CLR,,0.00,WeatherDisplay:10.37,2013-05-10 14:26:00,
2013-05-10 09:31:00,68.4,64.3,29.80,North,0,1.6,3.5,87,0.00,CLR,,0.00,WeatherDisplay:10.37,2013-05-10 14:31:00,
2013-05-10 09:36:00,68.4,64.3,29.83,North,0,2.2,3.3,87,0.00,CLR,,0.00,WeatherDisplay:10.37,2013-05-10 14:36:00,
2013-05-10 09:41:00,68.4,64.3,29.83,North,0,0.9,2.2,87,0.00,CLR,,0.00,WeatherDisplay:10.37,2013-05-10 14:41:00,
2013-05-10 09:46:00,68.5,64.8,29.83,NNE,22,2.0,2.3,88,0.00,CLR,,0.00,WeatherDisplay:10.37,2013-05-10 14:46:00,
2013-05-10 09:51:00,68.5,64.8,29.83,NNE,22,2.4,3.5,88,0.00,CLR,,0.00,WeatherDisplay:10.37,2013-05-10 14:51:00,
2013-05-10 09:56:00,68.5,64.8,29.83,NW,315,2.0,3.1,88,0.00,CLR,,0.00,WeatherDisplay:10.37,2013-05-10 14:56:00,
2013-05-10 10:02:00,68.5,64.8,29.83,West,270,1.6,2.4,88,0.00,CLR,,0.00,WeatherDisplay:10.37,2013-05-10 15:02:00,
2013-05-10 10:07:00,68.5,64.8,29.83,WSW,248,2.0,3.3,88,0.00,CLR,,0.00,WeatherDisplay:10.37,2013-05-10 15:07:00,
2013-05-10 10:12:00,68.4,64.3,29.83,SSW,202,1.6,2.3,87,0.00,CLR,,0.00,WeatherDisplay:10.37,2013-05-10 15:12:00,
2013-05-10 10:17:00,68.4,64.3,29.83,SE,135,1.6,2.4,87,0.00,CLR,,0.00,WeatherDisplay:10.37,2013-05-10 15:17:00,
2013-05-10 10:22:00,68.4,64.3,29.83,South,180,2.2,2.4,87,0.00,CLR,,0.00,WeatherDisplay:10.37,2013-05-10 15:22:00,
2013-05-10 10:27:00,68.4,64.0,29.83,SSE,158,2.0,3.1,86,0.00,CLR,,0.00,WeatherDisplay:10.37,2013-05-10 15:27:00,
2013-05-10 10:32:00,68.4,64.0,29.83,SE,135,2.4,3.1,86,0.00,CLR,,0.00,WeatherDisplay:10.37,2013-05-10 15:32:00,
2013-05-10 10:37:00,68.5,63.8,29.83,WSW,248,1.2,2.4,85,0.00,CLR,,0.00,WeatherDisplay:10.37,2013-05-10 15:37:00,
2013-05-10 10:42:00,68.5,64.2,29.83,West,270,3.6,5.6,86,0.00,CLR,,0.00,WeatherDisplay:10.37,2013-05-10 15:42:00,
2013-05-10 10:47:00,67.8,62.1,29.83,WSW,248,3.6,5.8,82,0.00,CLR,,0.00,WeatherDisplay:10.37,2013-05-10 15:47:00,
2013-05-10 10:52:00,68.0,61.2,29.83,ESE,112,3.3,5.8,79,0.00,CLR,,0.00,WeatherDisplay:10.37,2013-05-10 15:52:00,
2013-05-10 10:57:00,67.8,60.0,29.83,SSE,158,3.6,4.6,76,0.00,CLR,,0.00,WeatherDisplay:10.37,2013-05-10 15:57:00,
2013-05-10 11:02:00,67.8,59.2,29.83,ESE,112,3.6,5.8,74,0.00,CLR,,0.00,WeatherDisplay:10.37,2013-05-10 16:02:00,
2013-05-10 11:07:00,68.2,60.7,29.80,SE,135,2.9,3.5,77,0.00,CLR,,0.00,WeatherDisplay:10.37,2013-05-10 16:07:00,
2013-05-10 11:12:00,68.2,61.1,29.80,SE,135,4.7,7.8,78,0.00,CLR,,0.00,WeatherDisplay:10.37,2013-05-10 16:12:00,
2013-05-10 11:17:00,68.0,60.2,29.80,SE,135,6.0,8.5,76,0.00,CLR,,0.00,WeatherDisplay:10.37,2013-05-10 16:17:00,
2013-05-10 11:22:00,67.8,59.6,29.77,ESE,112,10.2,14.7,75,0.00,CLR,,0.00,WeatherDisplay:10.37,2013-05-10 16:22:00,
2013-05-10 11:27:00,67.8,60.3,29.77,SE,135,13.8,19.7,77,0.00,CLR,,0.00,WeatherDisplay:10.37,2013-05-10 16:27:00,
2013-05-10 11:32:00,67.6,58.7,29.77,SSW,202,13.8,25.3,73,0.00,CLR,,0.00,WeatherDisplay:10.37,2013-05-10 16:32:00,
2013-05-10 11:37:00,67.6,56.7,29.71,SSE,158,9.0,19.6,68,0.00,CLR,,0.00,WeatherDisplay:10.37,2013-05-10 16:37:00,
2013-05-10 11:42:00,67.5,54.0,29.71,SW,225,10.5,18.4,62,0.00,CLR,,0.00,WeatherDisplay:10.37,2013-05-10 16:42:00,
2013-05-10 11:47:00,67.3,51.5,29.71,SSE,158,14.3,19.4,57,0.00,CLR,,0.00,WeatherDisplay:10.37,2013-05-10 16:47:00,
2013-05-10 11:52:00,67.1,49.9,29.68,South,180,17.0,25.3,54,0.00,CLR,,0.00,WeatherDisplay:10.37,2013-05-10 16:52:00,
2013-05-10 11:57:00,66.9,49.7,29.68,SSW,202,12.1,15.2,54,0.00,CLR,,0.00,WeatherDisplay:10.37,2013-05-10 16:57:00,
2013-05-10 12:02:00,67.1,49.4,29.68,South,180,11.4,19.6,53,0.00,CLR,,0.00,WeatherDisplay:10.37,2013-05-10 17:02:00,
2013-05-10 12:07:00,67.3,49.0,29.71,SSW,202,9.2,12.7,52,0.00,CLR,,0.00,WeatherDisplay:10.37,2013-05-10 17:07:00,
2013-05-10 12:12:00,67.3,49.6,29.71,SSW,202,6.9,9.2,53,0.00,CLR,,0.00,WeatherDisplay:10.37,2013-05-10 17:12:00,
2013-05-10 12:17:00,67.3,50.1,29.71,SW,225,8.5,10.5,54,0.00,CLR,,0.00,WeatherDisplay:10.37,2013-05-10 17:17:00,
2013-05-10 12:22:00,67.3,50.6,29.71,SSW,202,6.4,9.2,55,0.00,CLR,,0.00,WeatherDisplay:10.37,2013-05-10 17:22:00,
2013-05-10 12:27:00,67.3,50.6,29.71,SSW,202,8.5,10.4,55,0.00,CLR,,0.00,WeatherDisplay:10.37,2013-05-10 17:27:00,
2013-05-10 12:32:00,67.3,51.0,29.71,SSE,158,7.8,9.2,56,0.00,CLR,,0.00,WeatherDisplay:10.37,2013-05-10 17:32:00,
2013-05-10 12:37:00,67.5,51.7,29.71,SW,225,6.9,10.9,57,0.00,CLR,,0.00,WeatherDisplay:10.37,2013-05-10 17:37:00,
2013-05-10 12:42:00,67.6,52.3,29.71,WSW,248,7.1,8.5,58,0.00,CLR,,0.00,WeatherDisplay:10.37,2013-05-10 17:42:00,
2013-05-10 12:47:00,68.0,52.2,29.71,West,270,6.2,9.2,57,0.00,CLR,,0.00,WeatherDisplay:10.37,2013-05-10 17:47:00,
2013-05-10 12:52:00,68.5,52.7,29.71,SSE,158,6.7,8.1,57,0.00,CLR,,0.00,WeatherDisplay:10.37,2013-05-10 17:52:00,
2013-05-10 12:57:00,68.9,52.6,29.71,SSW,202,6.2,10.2,56,0.00,CLR,,0.00,WeatherDisplay:10.37,2013-05-10 17:57:00,
2013-05-10 13:02:00,69.4,52.1,29.71,SSW,202,6.4,9.8,54,0.00,CLR,,0.00,WeatherDisplay:10.37,2013-05-10 18:02:00,
2013-05-10 13:07:00,69.8,50.9,29.71,SSW,202,6.0,10.4,51,0.00,CLR,,0.00,WeatherDisplay:10.37,2013-05-10 18:07:00,
2013-05-10 13:12:00,70.0,48.2,29.71,SE,135,9.8,12.7,46,0.00,CLR,,0.00,WeatherDisplay:10.37,2013-05-10 18:12:00,
2013-05-10 13:17:00,70.3,49.7,29.71,South,180,5.9,9.2,48,0.00,CLR,,0.00,WeatherDisplay:10.37,2013-05-10 18:17:00,
2013-05-10 13:22:00,70.5,48.7,29.71,SSW,202,7.8,12.1,46,0.00,CLR,,0.00,WeatherDisplay:10.37,2013-05-10 18:22:00,
2013-05-10 13:27:00,70.5,48.7,29.71,WSW,248,4.9,8.1,46,0.00,CLR,,0.00,WeatherDisplay:10.37,2013-05-10 18:27:00,
2013-05-10 13:32:00,70.9,48.5,29.71,SSW,202,5.6,8.1,45,0.00,CLR,,0.00,WeatherDisplay:10.37,2013-05-10 18:32:00,
2013-05-10 13:37:00,70.9,48.5,29.71,South,180,5.9,8.1,45,0.00,CLR,,0.00,WeatherDisplay:10.37,2013-05-10 18:37:00,
2013-05-10 13:42:00,71.2,47.6,29.71,South,180,5.4,8.1,43,0.00,CLR,,0.00,WeatherDisplay:10.37,2013-05-10 18:42:00,
2013-05-10 13:47:00,71.4,48.4,29.71,SW,225,5.9,6.9,44,0.00,CLR,,0.00,WeatherDisplay:10.37,2013-05-10 18:47:00,
2013-05-10 13:52:00,71.8,48.1,29.68,SW,225,4.0,8.1,43,0.00,CLR,,0.00,WeatherDisplay:10.37,2013-05-10 18:52:00,
2013-05-10 13:57:00,71.8,48.1,29.68,South,180,5.4,6.2,43,0.00,CLR,,0.00,WeatherDisplay:10.37,2013-05-10 18:57:00,
2013-05-10 14:02:00,71.8,47.4,29.68,SSW,202,4.0,6.9,42,0.00,CLR,,0.00,WeatherDisplay:10.37,2013-05-10 19:02:00,
2013-05-10 14:07:00,71.8,47.4,29.68,South,180,4.5,8.1,42,0.00,CLR,,0.00,WeatherDisplay:10.37,2013-05-10 19:07:00,
2013-05-10 14:12:00,72.1,47.8,29.68,SSW,202,4.7,6.4,42,0.00,CLR,,0.00,WeatherDisplay:10.37,2013-05-10 19:12:00,
2013-05-10 14:17:00,72.7,48.3,29.68,SSW,202,6.2,8.1,42,0.00,CLR,,0.00,WeatherDisplay:10.37,2013-05-10 19:17:00,
2013-05-10 14:22:00,73.4,48.3,29.71,WSW,248,5.4,6.4,41,0.00,CLR,,0.00,WeatherDisplay:10.37,2013-05-10 19:22:00,
2013-05-10 14:27:00,73.8,48.6,29.71,SW,225,4.9,6.9,41,0.00,CLR,,0.00,WeatherDisplay:10.37,2013-05-10 19:27:00,
2013-05-10 14:32:00,73.8,45.9,29.71,SSW,202,6.9,9.2,37,0.00,CLR,,0.00,WeatherDisplay:10.37,2013-05-10 19:32:00,
2013-05-10 14:37:00,74.1,48.2,29.68,SSE,158,4.9,8.1,40,0.00,CLR,,0.00,WeatherDisplay:10.37,2013-05-10 19:37:00,
2013-05-10 14:42:00,74.1,46.9,29.68,SSW,202,6.0,10.4,38,0.00,CLR,,0.00,WeatherDisplay:10.37,2013-05-10 19:42:00,
2013-05-10 14:47:00,74.5,46.5,29.68,SW,225,7.1,10.4,37,0.00,CLR,,0.00,WeatherDisplay:10.37,2013-05-10 19:47:00,
2013-05-10 14:52:00,75.2,47.1,29.68,WSW,248,6.0,6.9,37,0.00,CLR,,0.00,WeatherDisplay:10.37,2013-05-10 19:52:00,
2013-05-10 14:57:00,75.4,46.6,29.68,SW,225,4.7,7.8,36,0.00,CLR,,0.00,WeatherDisplay:10.37,2013-05-10 19:57:00,
2013-05-10 15:02:00,75.4,45.8,29.68,SSW,202,5.9,5.9,35,0.00,CLR,,0.00,WeatherDisplay:10.37,2013-05-10 20:02:00,
2013-05-10 15:07:00,74.7,44.4,29.68,WSW,248,9.2,10.5,34,0.00,CLR,,0.00,WeatherDisplay:10.37,2013-05-10 20:07:00,
2013-05-10 15:12:00,74.8,46.1,29.68,WSW,248,3.8,5.4,36,0.00,CLR,,0.00,WeatherDisplay:10.37,2013-05-10 20:12:00,
2013-05-10 15:17:00,74.5,46.5,29.68,West,270,5.4,9.8,37,0.00,CLR,,0.00,WeatherDisplay:10.37,2013-05-10 20:17:00,
2013-05-10 15:22:00,74.7,46.7,29.68,WSW,248,4.3,5.6,37,0.00,CLR,,0.00,WeatherDisplay:10.37,2013-05-10 20:22:00,
2013-05-10 15:27:00,74.7,45.9,29.68,WSW,248,6.0,8.1,36,0.00,CLR,,0.00,WeatherDisplay:10.37,2013-05-10 20:27:00,
2013-05-10 15:32:00,74.5,45.8,29.68,West,270,6.0,13.8,36,0.00,CLR,,0.00,WeatherDisplay:10.37,2013-05-10 20:32:00,
2013-05-10 15:37:00,74.1,45.5,29.65,West,270,8.1,10.9,36,0.00,CLR,,0.00,WeatherDisplay:10.37,2013-05-10 20:37:00,
2013-05-10 15:42:00,73.9,46.0,29.65,West,270,6.7,8.1,37,0.00,CLR,,0.00,WeatherDisplay:10.37,2013-05-10 20:42:00,
2013-05-10 15:47:00,73.6,45.7,29.65,SW,225,10.0,13.8,37,0.00,CLR,,0.00,WeatherDisplay:10.37,2013-05-10 20:47:00,
2013-05-10 15:52:00,73.4,46.2,29.65,West,270,6.0,6.0,38,0.00,CLR,,0.00,WeatherDisplay:10.37,2013-05-10 20:52:00,
2013-05-10 15:57:00,73.4,48.3,29.65,West,270,4.9,7.6,41,0.00,CLR,,0.00,WeatherDisplay:10.37,2013-05-10 20:57:00,
2013-05-10 16:02:00,72.9,47.8,29.65,WSW,248,7.4,9.2,41,0.00,CLR,,0.00,WeatherDisplay:10.37,2013-05-10 21:02:00,
2013-05-10 16:07:00,72.5,48.1,29.62,WSW,248,6.9,10.4,42,0.00,CLR,,0.00,WeatherDisplay:10.37,2013-05-10 21:07:00,
2013-05-10 16:12:00,72.3,48.6,29.62,SW,225,4.7,8.1,43,0.00,CLR,,0.00,WeatherDisplay:10.37,2013-05-10 21:12:00,
2013-05-10 16:17:00,72.1,49.0,29.62,West,270,5.6,5.8,44,0.00,CLR,,0.00,WeatherDisplay:10.37,2013-05-10 21:17:00,
2013-05-10 16:22:00,72.0,48.9,29.62,SSW,202,5.6,6.9,44,0.00,CLR,,0.00,WeatherDisplay:10.37,2013-05-10 21:22:00,
2013-05-10 16:27:00,72.1,49.6,29.62,West,270,3.8,5.8,45,0.00,CLR,,0.00,WeatherDisplay:10.37,2013-05-10 21:27:00,
2013-05-10 16:32:00,72.1,49.6,29.62,West,270,5.6,8.1,45,0.00,CLR,,0.00,WeatherDisplay:10.37,2013-05-10 21:32:00,
2013-05-10 16:37:00,72.1,50.2,29.62,West,270,5.9,6.0,46,0.00,CLR,,0.00,WeatherDisplay:10.37,2013-05-10 21:37:00,
2013-05-10 16:42:00,72.1,50.2,29.62,West,270,5.6,7.6,46,0.00,CLR,,0.00,WeatherDisplay:10.37,2013-05-10 21:42:00,
2013-05-10 16:47:00,72.1,50.2,29.62,West,270,5.9,8.1,46,0.00,CLR,,0.00,WeatherDisplay:10.37,2013-05-10 21:47:00,
2013-05-10 16:52:00,72.3,51.0,29.65,WSW,248,6.0,7.6,47,0.00,CLR,,0.00,WeatherDisplay:10.37,2013-05-10 21:52:00,
2013-05-10 16:57:00,72.1,50.8,29.65,West,270,4.9,6.9,47,0.00,CLR,,0.00,WeatherDisplay:10.37,2013-05-10 21:57:00,
2013-05-10 16:58:00,72.1,50.8,29.65,WSW,248,4.9,6.9,47,0.00,CLR,,0.00,WeatherDisplay:10.37,2013-05-10 21:58:00,
2013-05-10 16:59:00,72.1,50.8,29.65,West,270,4.3,6.2,47,0.00,CLR,,0.00,WeatherDisplay:10.37,2013-05-10 21:59:00,
2013-05-10 17:00:00,72.0,50.6,29.65,WSW,248,5.9,6.2,47,0.00,CLR,,0.00,WeatherDisplay:10.37,2013-05-10 22:00:00,
2013-05-10 17:01:00,72.0,50.6,29.65,West,270,4.7,6.0,47,0.00,CLR,,0.00,WeatherDisplay:10.37,2013-05-10 22:01:00,
2013-05-10 17:06:00,71.8,51.0,29.65,WNW,292,6.7,7.4,48,0.00,CLR,,0.00,WeatherDisplay:10.37,2013-05-10 22:06:00,
2013-05-10 17:11:00,71.6,51.4,29.65,West,270,4.7,9.2,49,0.00,CLR,,0.00,WeatherDisplay:10.37,2013-05-10 22:11:00,
2013-05-10 17:16:00,71.4,51.8,29.65,WSW,248,5.4,6.2,50,0.00,CLR,,0.00,WeatherDisplay:10.37,2013-05-10 22:16:00,
2013-05-10 17:17:00,71.4,51.3,29.65,SW,225,5.9,6.2,49,0.00,CLR,,0.00,WeatherDisplay:10.37,2013-05-10 22:17:00,
2013-05-10 17:22:00,71.2,51.6,29.65,West,270,6.4,9.2,50,0.00,CLR,,0.00,WeatherDisplay:10.37,2013-05-10 22:22:00,
2013-05-10 17:27:00,71.2,52.2,29.65,WSW,248,6.2,8.1,51,0.00,CLR,,0.00,WeatherDisplay:10.37,2013-05-10 22:27:00,
2013-05-10 17:32:00,71.1,52.5,29.65,WSW,248,7.4,8.1,52,0.00,CLR,,0.00,WeatherDisplay:10.37,2013-05-10 22:32:00,
2013-05-10 17:37:00,70.9,52.4,29.65,SSW,202,6.7,11.5,52,0.00,CLR,,0.00,WeatherDisplay:10.37,2013-05-10 22:37:00,
2013-05-10 17:42:00,70.9,52.9,29.65,SW,225,6.7,9.7,53,0.00,CLR,,0.00,WeatherDisplay:10.37,2013-05-10 22:42:00,
2013-05-10 17:47:00,70.7,53.2,29.65,West,270,6.7,8.1,54,0.00,CLR,,0.00,WeatherDisplay:10.37,2013-05-10 22:47:00,
2013-05-10 17:52:00,70.5,53.6,29.65,WSW,248,6.0,7.6,55,0.00,CLR,,0.00,WeatherDisplay:10.37,2013-05-10 22:52:00,
2013-05-10 17:57:00,70.5,53.6,29.65,West,270,6.0,7.4,55,0.00,CLR,,0.00,WeatherDisplay:10.37,2013-05-10 22:57:00,
2013-05-10 18:02:00,70.3,54.4,29.65,West,270,4.5,6.4,57,0.00,CLR,,0.00,WeatherDisplay:10.37,2013-05-10 23:02:00,
2013-05-10 18:07:00,70.3,54.4,29.65,West,270,3.1,7.1,57,0.00,CLR,,0.00,WeatherDisplay:10.37,2013-05-10 23:07:00,
2013-05-10 18:12:00,70.3,54.4,29.65,West,270,4.5,7.1,57,0.00,CLR,,0.00,WeatherDisplay:10.37,2013-05-10 23:12:00,
2013-05-10 18:17:00,70.3,54.4,29.65,WNW,292,3.8,6.9,57,0.00,CLR,,0.00,WeatherDisplay:10.37,2013-05-10 23:17:00,
2013-05-10 18:22:00,70.2,54.7,29.65,WSW,248,3.3,5.9,58,0.00,CLR,,0.00,WeatherDisplay:10.37,2013-05-10 23:22:00,
2013-05-10 18:27:00,70.2,55.2,29.65,WSW,248,3.8,7.1,59,0.00,CLR,,0.00,WeatherDisplay:10.37,2013-05-10 23:27:00,
2013-05-10 18:32:00,70.0,55.5,29.65,West,270,4.5,7.4,60,0.00,CLR,,0.00,WeatherDisplay:10.37,2013-05-10 23:32:00,
2013-05-10 18:37:00,70.0,55.5,29.68,West,270,3.3,5.8,60,0.00,CLR,,0.00,WeatherDisplay:10.37,2013-05-10 23:37:00,
2013-05-10 18:42:00,69.8,55.7,29.68,West,270,4.3,8.5,61,0.00,CLR,,0.00,WeatherDisplay:10.37,2013-05-10 23:42:00,
2013-05-10 18:47:00,69.8,55.7,29.68,SW,225,6.0,6.0,61,0.00,CLR,,0.00,WeatherDisplay:10.37,2013-05-10 23:47:00,
2013-05-10 18:52:00,69.6,56.0,29.71,West,270,5.4,6.9,62,0.00,CLR,,0.00,WeatherDisplay:10.37,2013-05-10 23:52:00,
2013-05-10 18:57:00,69.4,56.3,29.71,WSW,248,6.7,10.5,63,0.00,CLR,,0.00,WeatherDisplay:10.37,2013-05-10 23:57:00,
2013-05-10 19:02:00,69.3,56.6,29.71,WSW,248,6.0,8.1,64,0.00,CLR,,0.00,WeatherDisplay:10.37,2013-05-11 00:02:00,
2013-05-10 19:07:00,69.1,56.8,29.74,WSW,248,6.0,7.6,65,0.00,CLR,,0.00,WeatherDisplay:10.37,2013-05-11 00:07:00,
2013-05-10 19:12:00,68.9,57.1,29.74,WSW,248,4.5,5.8,66,0.00,CLR,,0.00,WeatherDisplay:10.37,2013-05-11 00:12:00,
2013-05-10 19:17:00,68.7,57.3,29.74,WSW,248,5.4,7.8,67,0.00,CLR,,0.00,WeatherDisplay:10.37,2013-05-11 00:17:00,
2013-05-10 19:22:00,68.5,57.6,29.74,WSW,248,4.9,8.1,68,0.00,CLR,,0.00,WeatherDisplay:10.37,2013-05-11 00:22:00,
2013-05-10 19:27:00,68.4,57.8,29.74,West,270,5.9,8.1,69,0.00,CLR,,0.00,WeatherDisplay:10.37,2013-05-11 00:27:00,
2013-05-10 19:32:00,68.2,57.6,29.74,West,270,2.9,5.8,69,0.00,CLR,,0.00,WeatherDisplay:10.37,2013-05-11 00:32:00,
2013-05-10 19:37:00,68.0,57.4,29.74,SW,225,4.0,4.9,69,0.00,CLR,,0.00,WeatherDisplay:10.37,2013-05-11 00:37:00,
2013-05-10 19:42:00,68.0,57.4,29.74,SW,225,2.6,4.6,69,0.00,CLR,,0.00,WeatherDisplay:10.37,2013-05-11 00:42:00,
2013-05-10 19:47:00,67.8,57.7,29.74,WSW,248,3.8,4.6,70,0.00,CLR,,0.00,WeatherDisplay:10.37,2013-05-11 00:47:00,
2013-05-10 19:52:00,67.6,57.1,29.74,WSW,248,2.6,3.5,69,0.00,CLR,,0.00,WeatherDisplay:10.37,2013-05-11 00:52:00,
2013-05-10 19:57:00,67.5,56.9,29.74,WSW,248,2.2,3.5,69,0.00,CLR,,0.00,WeatherDisplay:10.37,2013-05-11 00:57:00,
2013-05-10 20:02:00,67.5,56.9,29.74,West,270,2.6,4.6,69,0.00,CLR,,0.00,WeatherDisplay:10.37,2013-05-11 01:02:00,
2013-05-10 20:07:00,67.3,56.8,29.74,WSW,248,3.8,4.7,69,0.00,CLR,,0.00,WeatherDisplay:10.37,2013-05-11 01:07:00,
2013-05-10 20:12:00,67.3,56.8,29.74,West,270,1.4,2.4,69,0.00,CLR,,0.00,WeatherDisplay:10.37,2013-05-11 01:12:00,
2013-05-10 20:17:00,67.1,56.6,29.74,SSW,202,2.0,2.3,69,0.00,CLR,,0.00,WeatherDisplay:10.37,2013-05-11 01:17:00,
2013-05-10 20:22:00,67.1,56.6,29.68,ESE,112,2.4,3.5,69,0.00,CLR,,0.00,WeatherDisplay:10.37,2013-05-11 01:22:00,
2013-05-10 20:27:00,67.1,56.6,29.68,SE,135,0.9,2.3,69,0.00,CLR,,0.00,WeatherDisplay:10.37,2013-05-11 01:27:00,
2013-05-10 20:32:00,67.1,56.6,29.68,SE,135,2.0,2.9,69,0.00,CLR,,0.00,WeatherDisplay:10.37,2013-05-11 01:32:00,
2013-05-10 20:37:00,66.9,56.8,29.68,ESE,112,2.9,4.6,70,0.00,CLR,,0.00,WeatherDisplay:10.37,2013-05-11 01:37:00,
2013-05-10 20:42:00,66.9,57.2,29.68,ESE,112,2.9,3.5,71,0.00,CLR,,0.00,WeatherDisplay:10.37,2013-05-11 01:42:00,
2013-05-10 20:47:00,66.7,57.0,29.68,ESE,112,2.4,2.9,71,0.00,CLR,,0.00,WeatherDisplay:10.37,2013-05-11 01:47:00,
2013-05-10 20:52:00,66.7,57.4,29.65,ESE,112,3.6,4.6,72,0.00,CLR,,0.00,WeatherDisplay:10.37,2013-05-11 01:52:00,
2013-05-10 20:57:00,66.7,58.6,29.65,ESE,112,6.4,8.1,75,0.00,CLR,,0.00,WeatherDisplay:10.37,2013-05-11 01:57:00,
2013-05-10 21:02:00,66.6,58.8,29.65,SE,135,7.6,8.5,76,0.00,CLR,,0.00,WeatherDisplay:10.37,2013-05-11 02:02:00,
2013-05-10 21:07:00,66.6,59.1,29.59,ESE,112,4.5,6.9,77,0.00,CLR,,0.00,WeatherDisplay:10.37,2013-05-11 02:07:00,
2013-05-10 21:12:00,66.6,59.1,29.59,ESE,112,4.9,6.2,77,0.00,CLR,,0.00,WeatherDisplay:10.37,2013-05-11 02:12:00,
2013-05-10 21:17:00,66.4,58.9,29.59,SE,135,6.2,9.2,77,0.00,CLR,,0.00,WeatherDisplay:10.37,2013-05-11 02:17:00,
2013-05-10 21:22:00,66.4,59.3,29.62,ESE,112,4.3,6.0,78,0.00,CLR,,0.00,WeatherDisplay:10.37,2013-05-11 02:22:00,
2013-05-10 21:27:00,66.4,58.9,29.62,SSE,158,2.6,3.5,77,0.00,CLR,,0.00,WeatherDisplay:10.37,2013-05-11 02:27:00,
2013-05-10 21:32:00,66.4,58.9,29.62,SW,225,2.0,2.9,77,0.00,CLR,,0.00,WeatherDisplay:10.37,2013-05-11 02:32:00,
2013-05-10 21:37:00,66.6,59.5,29.65,WSW,248,4.0,7.1,78,0.00,CLR,,0.00,WeatherDisplay:10.37,2013-05-11 02:37:00,
2013-05-10 21:42:00,66.4,59.7,29.65,West,270,2.6,5.8,79,0.00,CLR,,0.00,WeatherDisplay:10.37,2013-05-11 02:42:00,
2013-05-10 21:47:00,66.4,59.3,29.65,SW,225,1.2,2.3,78,0.00,CLR,,0.00,WeatherDisplay:10.37,2013-05-11 02:47:00,
2013-05-10 21:52:00,66.2,58.8,29.62,SW,225,1.4,2.3,77,0.00,CLR,,0.00,WeatherDisplay:10.37,2013-05-11 02:52:00,
2013-05-10 21:57:00,66.2,58.4,29.62,SW,225,0.0,0.0,76,0.00,CLR,,0.00,WeatherDisplay:10.37,2013-05-11 02:57:00,
2013-05-10 22:02:00,66.0,58.2,29.62,SW,225,0.0,0.9,76,0.00,CLR,,0.00,WeatherDisplay:10.37,2013-05-11 03:02:00,
2013-05-10 22:07:00,65.8,58.4,29.65,WNW,292,2.2,2.6,77,0.00,CLR,,0.00,WeatherDisplay:10.37,2013-05-11 03:07:00,
2013-05-10 22:12:00,65.8,58.4,29.65,West,270,2.9,3.5,77,0.00,CLR,,0.00,WeatherDisplay:10.37,2013-05-11 03:12:00,
2013-05-10 22:17:00,65.7,58.3,29.65,West,270,0.0,0.0,77,0.00,CLR,,0.00,WeatherDisplay:10.37,2013-05-11 03:17:00,
2013-05-10 22:22:00,65.5,58.1,29.68,West,270,0.0,0.0,77,0.00,CLR,,0.00,WeatherDisplay:10.37,2013-05-11 03:22:00,
2013-05-10 22:27:00,65.3,57.5,29.68,WSW,248,2.0,3.6,76,0.00,CLR,,0.00,WeatherDisplay:10.37,2013-05-11 03:27:00,
2013-05-10 22:32:00,65.1,58.1,29.68,SW,225,0.0,1.2,78,0.00,CLR,,0.00,WeatherDisplay:10.37,2013-05-11 03:32:00,
2013-05-10 22:37:00,65.1,58.4,29.68,West,270,2.6,3.1,79,0.00,CLR,,0.00,WeatherDisplay:10.37,2013-05-11 03:37:00,
2013-05-10 22:42:00,64.9,58.3,29.68,WSW,248,1.6,2.3,79,0.00,CLR,,0.00,WeatherDisplay:10.37,2013-05-11 03:42:00,
2013-05-10 22:47:00,64.8,58.4,29.68,East,90,0.0,2.3,80,0.00,CLR,,0.00,WeatherDisplay:10.37,2013-05-11 03:47:00,
2013-05-10 22:52:00,64.8,58.8,29.68,North,0,2.4,2.6,81,0.00,CLR,,0.00,WeatherDisplay:10.37,2013-05-11 03:52:00,
2013-05-10 22:57:00,64.9,59.7,29.68,NW,315,3.3,4.6,83,0.00,CLR,,0.00,WeatherDisplay:10.37,2013-05-11 03:57:00,
2013-05-10 23:01:00,64.9,59.7,29.68,WNW,292,3.1,4.6,83,0.00,CLR,,0.00,WeatherDisplay:10.37,2013-05-11 04:01:00,
2013-05-10 23:02:00,64.9,60.0,29.68,NNW,338,3.1,3.8,84,0.00,CLR,,0.00,WeatherDisplay:10.37,2013-05-11 04:02:00,
2013-05-10 23:03:00,65.1,60.5,29.68,NNW,338,3.3,4.6,85,0.00,CLR,,0.00,WeatherDisplay:10.37,2013-05-11 04:03:00,
2013-05-10 23:07:00,65.1,61.2,29.71,North,0,5.9,6.9,87,0.00,CLR,,0.00,WeatherDisplay:10.37,2013-05-11 04:07:00,
2013-05-10 23:08:00,65.1,61.2,29.71,NNW,338,3.3,6.9,87,0.00,CLR,,0.00,WeatherDisplay:10.37,2013-05-11 04:08:00,
2013-05-10 23:13:00,65.1,61.5,29.71,NNW,338,3.3,4.6,88,0.00,CLR,,0.00,WeatherDisplay:10.37,2013-05-11 04:13:00,
2013-05-10 23:18:00,65.1,61.5,29.71,NW,315,2.9,4.6,88,0.00,CLR,,0.00,WeatherDisplay:10.37,2013-05-11 04:18:00,
2013-05-10 23:23:00,65.1,61.5,29.71,NNW,338,3.1,4.7,88,0.00,CLR,,0.00,WeatherDisplay:10.37,2013-05-11 04:23:00,
2013-05-10 23:28:00,65.1,61.5,29.71,North,0,3.6,4.6,88,0.00,CLR,,0.00,WeatherDisplay:10.37,2013-05-11 04:28:00,
2013-05-10 23:33:00,65.1,61.5,29.71,NNW,338,3.1,4.0,88,0.00,CLR,,0.00,WeatherDisplay:10.37,2013-05-11 04:33:00,
2013-05-10 23:38:00,65.1,61.8,29.71,NNW,338,3.3,5.8,89,0.00,CLR,,0.00,WeatherDisplay:10.37,2013-05-11 04:38:00,
2013-05-10 23:43:00,65.3,62.0,29.71,North,0,3.8,4.7,89,0.00,CLR,,0.00,WeatherDisplay:10.37,2013-05-11 04:43:00,
2013-05-10 23:48:00,65.3,62.3,29.71,North,0,3.6,5.8,90,0.00,CLR,,0.00,WeatherDisplay:10.37,2013-05-11 04:48:00,
2013-05-10 23:53:00,65.3,62.3,29.71,North,0,2.6,3.6,90,0.00,CLR,,0.00,WeatherDisplay:10.37,2013-05-11 04:53:00,
2013-05-10 23:58:00,65.3,62.0,29.71,North,0,2.6,4.0,89,0.00,CLR,,0.00,WeatherDisplay:10.37,2013-05-11 04:58:00,